| DS18B20 | SHTC3 | PZEM-004T | WiFi | ||||||||
|---|---|---|---|---|---|---|---|---|---|---|---|
| ID | Date d/m/Y & Time | data1 สูง | data2 ต่ำ | data3 นอก | temp pcb | hum pcb | Volt | Amp | Watt | rssi | Time |
| 16216 | 26/08/2026 17:02:23 | 33.8  | 33.1  | 33.7  | 34.6  | 63.0  | 234.6  | 0.04  | 4.5  | -82  | 17:02 |
| 16215 | 26/08/2026 16:57:40 | 33.8  | 33.1  | 33.9  | 34.7  | 62.9  | 233.7  | 0.04  | 4.5  | -82  | 16:57 |
| 16214 | 26/08/2026 16:52:56 | 33.8  | 33.1  | 34.0  | 34.6  | 62.7  | 233.2  | 0.04  | 4.5  | -83  | 16:52 |
| 16213 | 26/08/2026 16:48:11 | 33.8  | 33.1  | 34.0  | 34.8  | 62.6  | 233.8  | 0.04  | 4.5  | -88  | 16:48 |
| 16212 | 26/08/2026 16:43:27 | 33.8  | 33.1  | 34.2  | 34.7  | 62.6  | 231.7  | 0.04  | 4.6  | -84  | 16:43 |
| 16211 | 26/08/2026 16:38:43 | 33.8  | 33.1  | 34.1  | 34.6  | 62.5  | 233.4  | 0.04  | 4.5  | -89  | 16:38 |
| 16210 | 26/08/2026 16:33:59 | 33.8  | 33.1  | 34.2  | 34.7  | 62.4  | 231.2  | 0.04  | 4.5  | -82  | 16:33 |
| 16209 | 26/08/2026 16:29:16 | 33.8  | 33.1  | 34.3  | 34.8  | 62.3  | 232.4  | 0.04  | 4.5  | -85  | 16:29 |
| 16208 | 26/08/2026 16:24:32 | 33.9  | 33.1  | 34.4  | 34.8  | 62.3  | 231.1  | 0.04  | 4.6  | -86  | 16:24 |
| 16207 | 26/08/2026 16:19:47 | 33.9  | 33.1  | 34.7  | 35.0  | 62.3  | 234.2  | 0.04  | 4.5  | -86  | 16:19 |
| 16206 | 26/08/2026 16:15:01 | 33.9  | 33.1  | 34.7  | 35.0  | 62.2  | 232.6  | 0.04  | 4.5  | -85  | 16:15 |
| 16205 | 26/08/2026 16:10:17 | 33.9  | 33.1  | 34.7  | 34.8  | 62.1  | 233.4  | 0.04  | 4.5  | -87  | 16:10 |
| 16204 | 26/08/2026 16:05:33 | 34.0  | 33.1  | 34.7  | 34.8  | 62.0  | 233.8  | 0.04  | 4.5  | -88  | 16:05 |
| 16203 | 26/08/2026 16:00:50 | 34.1  | 33.1  | 34.7  | 34.9  | 61.9  | 232.1  | 0.04  | 4.5  | -84  | 16:00 |
| 16202 | 26/08/2026 15:56:06 | 34.1  | 33.1  | 34.7  | 34.9  | 61.8  | 233.8  | 0.04  | 4.5  | -83  | 15:56 |
| 16201 | 26/08/2026 15:51:23 | 34.1  | 33.1  | 34.6  | 35.0  | 61.7  | 232.0  | 0.04  | 4.6  | -82  | 15:51 |
| 16200 | 26/08/2026 15:46:36 | 34.2  | 33.1  | 35.0  | 34.8  | 61.6  | 234.0  | 0.04  | 4.5  | -85  | 15:46 |
| 16199 | 26/08/2026 15:41:52 | 34.2  | 33.1  | 35.0  | 35.0  | 61.6  | 233.7  | 0.04  | 4.5  | -88  | 15:41 |
| 16198 | 26/08/2026 15:37:09 | 34.2  | 33.0  | 35.2  | 35.1  | 61.6  | 234.4  | 0.04  | 4.5  | -84  | 15:37 |
| 16197 | 26/08/2026 15:32:25 | 34.2  | 33.0  | 35.3  | 35.1  | 61.6  | 234.7  | 0.04  | 4.5  | -84  | 15:32 |
| 16196 | 26/08/2026 15:27:42 | 34.3  | 33.0  | 35.3  | 35.1  | 61.7  | 233.9  | 0.04  | 4.5  | -84  | 15:27 |
| 16195 | 26/08/2026 15:22:54 | 34.3  | 32.9  | 35.4  | 35.0  | 61.5  | 233.8  | 0.04  | 4.5  | -81  | 15:22 |
| 16194 | 26/08/2026 15:18:08 | 34.3  | 32.9  | 35.2  | 35.1  | 61.4  | 234.8  | 0.04  | 4.5  | -82  | 15:18 |
| 16193 | 26/08/2026 15:13:25 | 34.3  | 32.9  | 35.4  | 35.1  | 61.2  | 234.6  | 0.04  | 4.6  | -86  | 15:13 |